{"data":{"norad_id":56775,"intl_designator":"2023-078J","name":"STARLINK-6292","alt_names":[],"object_type":"PAYLOAD","status":"ACTIVE","operator":null,"country":"US","launch_date":"2023-05-31","launch_site_code":"AFWTR","launch_vehicle":null,"mission":null,"orbit_class":"UNKNOWN","rcs_meters":null,"size_class":null,"mass_kg":null,"dimensions":null,"purposes":["comms"],"wikipedia_slug":null,"has_3d_model":false,"image_url":null,"decayed_at":null,"tle_current":{"epoch":"2026-05-25T04:51:12.951072Z","epoch_age_seconds":54272,"freshness":"FRESH","line1":"1 56775U 23078J   26145.20223323 -.00000051  00000+0  35347-5 0  9998","line2":"2 56775  69.9993 111.6880 0003541 266.1170  93.9584 14.98330899165125","mean_motion":14.98330899,"eccentricity":0.0003541,"inclination_deg":69.9993,"raan_deg":111.688,"arg_perigee_deg":266.117,"mean_anomaly_deg":93.9584,"bstar":3.5347e-6,"rev_number":16512,"period_min":96.1069414614,"perigee_km":569.59204854421,"apogee_km":574.51417318072,"semimajor_km":6950.1901108625,"source":"CELESTRAK","updated_at":"2026-05-25T13:38:18.124796Z"}}}